Weather in Columbia

United States     39°13′14″N   76°51′34″W
temp.,
°C
wind,
m/s
gust,
m/s
humid.,
%
clouds,
%
prec.,
mm/h
press.,
hPa
HPBL,
m
12 may, wed
wed1223:00+12nnw5104086 0.0 1022870
02:00+9nnw41044100 0.0 1024849
05:00+7nw31150100 0.0 1024688
08:00+7nw4857100 0.0 1026699
11:00+12n464998 0.0 10251247
14:00+16n464036 0.0 10242073
17:00+17n353642 0.0 10231891
20:00+14nw225128 0.0 102346
13 may, thu
thu1323:00+12nnw4106374 0.1 1024325
02:00+10n3106215 0.1 1025359
05:00+9nnw38640 0.0 1025227
08:00+11nnw36490 0.0 1027301
11:00+16nnw45365 0.0 10261982
14:00+19n453177 0.0 10252665
17:00+17n443455 0.0 10242013
20:00+15nnw234764 0.0 102493
14 may, fri
fri1423:00+14nw25529 0.0 1025136
02:00+12nnw266048 0.0 1025140
05:00+10nnw226479 0.0 102551
08:00+13nnw245434 0.0 1027227
11:00+19nnw223558 0.0 10262518
14:00+20nw2133100 0.0 10252572
17:00+18ssw123789 0.0 10241670
20:00+16wnw11519 0.0 102416
15 may, sat
sat1523:00+13w11593 0.0 102513
02:00+12nw226211 0.0 102545
05:00+11wnw22675 0.0 102554
08:00+14nw12560 0.0 1026176
11:00+21nw11365 0.0 10261282
14:00+23sse122777 0.0 10243097
17:00+21se2233100 0.0 10232006
20:00+18sw124234 0.0 1024120
16 may, sun
sun1623:00+15ssw01533 0.0 102513
02:00+13w116117 0.0 102531
05:00+12nw11682 0.0 102615
08:00+15sw12605 0.0 1027230
11:00+21ssw234346 0.0 10261266
14:00+21s2343100 0.1 10251522
17:00+21sse3342100 0.1 10241275
20:00+16ne1176100 0.5 102566